Location: Bartlow
(52.0833°N, 0.3167°E)
Time: 13:13:32
(UTC+00:00)

Meteor 2-17 Rocket - Pass Details

Date: 26 September 2023
Orbit: 935 x 956 km, 82.5° (Epoch: 29 November)

Event Time Altitude Azimuth Distance (km) Brightness Sun altitude
Exits shadow 03:04:27 60° 227° (SW) 1,074 4.3 -25.0°
Maximum altitude 03:05:29 72° 283° (WNW) 989 4.3 -24.8°
Drops below altitude 10° 03:11:35 10° 8° (N) 2,672 7.3 -24.1°
Sets 03:14:06 0° 11° (N) 3,624 8.1 -23.7°
